Location: Key Biscayne
(25.6930°N, 80.1630°W)
Time: 23:33:13
(UTC-05:00)

Vanguard 1 - Pass Details

Date: 22 November 2017
Orbit: 650 x 3833 km, 34.2° (Epoch: 10 December)

Event Time Altitude Azimuth Distance (km) Brightness Sun altitude
Rises 19:41:20 0° 297° (WNW) 2,962 13.3 -29.3°
Reaches altitude 10° 19:43:35 10° 303° (WNW) 2,049 12.2 -29.8°
Enters shadow 19:45:45 27° 320° (NW) 1,279 10.9 -30.2°
